ASRTU-1 (AO-123)

Last updated on Mon Sep 21 2026 00:03:15 GMT+0000 (Coordinated Universal Time)

1 61781U 24199AY 26263.58576630 .00005655 00000+0 15858-3 0 9997 2 61781 97.2840 131.4016 0012449 333.4040 26.6565 15.36912008148578
UTC large
Height (km)
Speed (km/s)
/
Latitude / Longitude
Inclination (degrees)
Orbital Period (minutes)
Azimuth
Elevation
Range (km)
Doppler Factor

Next 0 passes for location: London (51.5072 / 0.1276)

No passes found over London.